Regional Weather Roundup
Issued by NWS Green Bay, WI

Home | Current Version | Previous Version | Text Only | Print | Product List | Glossary On
Versions: 1 2 3 4 5 6 7 8 9 10 11 12 13 14 15 16 17 18 19 20 21 22 23 24 25 26 27 28 29 30 31 32 33 34 35 36 37 38 39 40 41 42 43 44 45 46 47 48 49 50
000
ASUS43 KGRB 171600
RWRGRB

NORTH-CENTRAL AND NORTHEAST WISCONSIN REGIONAL WEATHER ROUNDUP
NATIONAL WEATHER SERVICE GREEN BAY WI
1000 AM CST SUN DEC 17 2017

WIZ005-009-010>012-018-019-171700-
NORTH CENTRAL WISCONSIN

CITY           SKY/WX    TMP DP  RH WIND       PRES   REMARKS
IRONWOOD       CLOUDY    24  21  88 S6        30.09S
MANITOWISH WTR NOT AVBL
ARBOR VITAE    NOT AVBL
EAGLE RIVER    NOT AVBL
LAND O LAKES   NOT AVBL
RHINELANDER    CLOUDY    23  22  96 SE6       30.07F
PHILLIPS       NOT AVBL
ANTIGO         NOT AVBL
TOMAHAWK       NOT AVBL
MERRILL        NOT AVBL
$$

WIZ013-073-171700-
NORTHEAST WISCONSIN

CITY           SKY/WX    TMP DP  RH WIND       PRES   REMARKS
IRON MOUNTAIN  CLOUDY    20  16  84 CALM      30.11F
MARINETTE      CLOUDY    30  25  81 SE10      30.15F
$$

WIZ017-030-035>037-045-171700-
CENTRAL WISCONSIN

CITY           SKY/WX    TMP DP  RH WIND       PRES   REMARKS
MEDFORD        NOT AVBL
WAUSAU         CLOUDY    23  23 100 SE6       30.09R FOG
MOSINEE        CLOUDY    25  25 100 E6        30.11S FOG
MARSHFIELD     CLOUDY    24  24 100 E6        30.08S FOG
WISC RAPIDS    CLOUDY    26  23  88 E5        30.12S FOG
STEVENS POINT  NOT AVBL
WAUPACA        NOT AVBL
SHAWANO        NOT AVBL
CLINTONVILLE   NOT AVBL
WAUTOMA        CLOUDY    27  25  92 NE5         N/A
$$

WIZ038-039-048-051-171700-
FOX VALLEY

CITY           SKY/WX    TMP DP  RH WIND       PRES   REMARKS
NWS GREEN BAY  CLOUDY    27  22  81 N8        30.13F
APPLETON       CLOUDY   N/A N/A N/A NE5       30.10F
OSHKOSH        CLOUDY    31  28  89 E7        30.10F FOG
FOND DU LAC    CLOUDY    32  27  81 E9        30.10F
$$

WIZ022-050-052-171700-
EAST CENTRAL WISCONSIN

CITY           SKY/WX    TMP DP  RH WIND       PRES   REMARKS
EPHRAIM        NOT AVBL
WASHINGTON ISL NOT AVBL
STURGEON BAY   CLOUDY    31  27  85 E9        30.15S
MANITOWOC      CLOUDY    30  28  92 E14       30.13F
SHEBOYGAN      CLOUDY    30  28  92 E8        30.11F
$$

LMZ563-521-522-541>543-171700-
LAKESHORE

STATION/POSITION TIME  TEMP    WIND        PRES    VSBY  WAVE
                       AIR SEA DIR/SP/G                  HT/PER
                 (UTC) (F)     (DEG/KT/KT) (MB)    (MI)  (FT/S)
KEWAUNEE LKSHORE 1530   31     120/ 10/ 12 1019.8F
NORTHPORT PIER   1540   29     120/ 13/ 16 1021.3S
SISTER BAY LKSHO 1520   30     110/  8/ 12   N/A
MENOMINEE LKSHOR 1530   29     100/ 12/ 14 1020.9F
$$




USA.gov is the U.S. government's official web portal to all federal, state and local government web resources and services.